Location: La Sioule Rivi�re
(46.3664°N, 3.3197°E)
Time: 13:05:36
(UTC+00:00)

Cosmos 2151 - Pass Details

Date: 29 October 2020
Orbit: 580 x 602 km, 82.5° (Epoch: 23 November)

Event Time Altitude Azimuth Distance (km) Brightness Sun altitude
Rises 19:09:29 0° 347° (NNW) 2,817 6.7 -27.0°
Reaches altitude 10° 19:11:42 10° 345° (NNW) 1,911 5.8 -27.3°
Enters shadow 19:14:05 32° 333° (NNW) 1,008 4.4 -27.7°
